Tracking 33464 objects as of 13-Mar-2026
HD Live streaming from Space Station
objects crossing your sky now

ECHOSTAR 6

Track ECHOSTAR 6 now!
ECHOSTAR 6 is classified as:


NORAD ID: 26402
Int'l Code: 2000-038A
Perigee: 36,186.3 km
Apogee: 36,240.7 km
Inclination: 10.7 °
Period: 1,457.6 minutes
Semi major axis: 42584 km
RCS: 25.1188 m2 (large)
Launch date: July 14, 2000
Source: United States (US)
Launch site: AIR FORCE EASTERN TEST RANGE (AFETR)

CONUS, Hawaii, Alaska and Puerto Rico; 32 Ku-band transponders
Your satellite tracking list
Your tracking list is empty




NASA's NSSDC Master Catalog

Two Line Element Set (TLE):
1 26402U 00038A   26072.31291081 -.00000255  00000-0  00000-0 0  9990
2 26402  10.6556  47.4686 0006388 304.9014  72.8310  0.98792780 93564
Source of the keplerian elements: AFSPC